Location: Kirkland Lake
(48.1510°N, 80.0330°W)
Time: 08:08:44
(UTC-04:00)

ISS - Visible Passes

Search period start: 28 May 2022 00:00
Search period end: 07 June 2022 00:00
Orbit: 414 x 421 km, 51.6° (Epoch: 28 May)

Date Brightness Start Highest point End Pass type
(mag) Time Alt. Az. Time Alt. Az. Time Alt. Az.
28 May -2.4 22:48:54 10° W 22:51:46 26° SW 22:53:07 20° S visible
29 May -2.9 22:00:34 10° WNW 22:03:44 39° SSW 22:06:43 11° SE visible
30 May -1.3 22:50:37 10° WSW 22:51:49 11° SW 22:53:00 10° SSW visible
31 May -1.7 22:01:28 10° W 22:03:50 18° SW 22:06:11 10° S visible
